Regional Weather Roundup
Issued by NWS Cleveland, OH

Home | Current Version | Previous Version | Graphics & Text | Print | Product List | Glossary On
Versions: 1 2 3 4 5 6 7 8 9 10 11 12 13 14 15 16 17 18 19 20 21 22 23 24 25 26 27 28 29 30 31 32 33 34 35 36 37 38 39 40 41 42 43 44 45 46 47 48 49 50
000
ASUS41 KCLE 071610
RWRCLE
OHIO REGIONAL WEATHER ROUNDUP
NATIONAL WEATHER SERVICE CLEVELAND, OH
1200 PM EDT TUE JUL 07 2015

NOTE: "FAIR" INDICATES FEW OR NO CLOUDS BELOW 12,000 FEET WITH NO
SIGNIFICANT WEATHER AND/OR OBSTRUCTIONS TO VISIBILITY.

OHZ001>008-015>018-024>027-034-035-043-044-071700-
   NORTHWEST OHIO

CITY           SKY/WX    TMP DP  RH WIND       PRES   REMARKS
DEFIANCE       LGT RAIN  73  70  90 S7        29.90R
FINDLAY        CLOUDY    81  72  74 SW17G26   29.90S
TOLEDO EXPRESS RAIN      72  70  93 SW8       29.89S FOG
TOLEDO EXEC    TSTM      73  68  84 SW10      29.90R
LIMA           CLOUDY    79  71  76 SW12      29.92F
$$

OHZ009>014-019>023-028>033-038-089-071700-
   NORTHEAST OHIO

CITY           SKY/WX    TMP DP  RH WIND       PRES   REMARKS
CLE-HOPKINS    CLOUDY    83  71  67 S13       29.94F
CLE-LAKEFRONT  PTSUNNY   84  71  65 S17G25    29.90F
CUY CO. ARPT   PTSUNNY   84  72  65 SW17      29.93F HAZE
LORAIN-ELYRIA  PTSUNNY   82  70  66 SW17      29.92F
ASHTABULA      PTSUNNY   81  72  74 S13       29.94F
AKRON-CANTON   CLOUDY    79  70  74 S14       29.98S
WOOSTER        PTSUNNY   79  70  74 SW15      29.97F
MANSFIELD      MOSUNNY   80  70  71 S17G28    29.96F
YOUNGSTOWN     PTSUNNY   81  71  71 SW10G21   29.97F
$$

OHZ042-051>053-060>062-070>072-077>081-071700-
  SOUTHWEST OHIO

CITY           SKY/WX    TMP DP  RH WIND       PRES   REMARKS
CINC-COVINGTON CLOUDY    78  72  81 SW10G20   29.99F
CINC-LUNKEN    CLOUDY    80  73  79 S13       29.97F
HAMILTON       PTSUNNY   82  73  74 SW9G16    29.96F
DAYTON         CLOUDY    80  72  76 S16       29.96F
WRIGHT-PAT AFB PTSUNNY   79  72  78 S10       29.96F
DAYTON GENERAL CLOUDY    78  71  79 S12       29.96F
WILMINGTON     CLOUDY    78  70  76 S13       29.99S
$$

OHZ036-037-039>041-045>050-054>059-063>069-073>076-082>088-071700-
  CENTRAL AND SOUTHEAST OHIO

CITY           SKY/WX    TMP DP  RH WIND       PRES   REMARKS
COLUMBUS       PTSUNNY   81  70  69 S13G23    29.98S
OSU AIRPORT    PTSUNNY   81  70  69 SW16G23   29.97F
BOLTON FIELD   CLOUDY    81  72  74 SW16      29.99S
RICKENBACK AFB PTSUNNY   81  71  71 S15G22    29.98F
NEWARK         CLOUDY    82  71  69 SW13G21   29.98F
MARION         PTSUNNY   81  71  71 S15G24    29.95F
LANCASTER      MOSUNNY   82  71  69 S13       30.00S
ZANESVILLE     NOT AVBL
NEW PHILLY     CLOUDY    77  72  84 VRB6      30.00F
$$


USA.gov is the U.S. government's official web portal to all federal, state and local government web resources and services.